| time (UTC) | temp F | wind direction | speed knots | gust knots | rain 1hr in | rain 24hr in | rain mn in | humidity % | barometer mb |
| 20260508094748 | 51 | 150 | 5.2 | 7.0 | 0.00 | 0.00 | 0.00 | 88 | 1018.7 |
| 20260508094248 | 50 | 153 | 5.2 | 7.8 | 0.00 | 0.00 | 0.00 | 88 | 1018.8 |
| 20260508093749 | 50 | 174 | 6.1 | 7.8 | 0.00 | 0.00 | 0.00 | 88 | 1018.9 |
| 20260508093248 | 50 | 176 | 6.1 | 7.8 | 0.00 | 0.00 | 0.00 | 88 | 1018.8 |
| 20260508092748 | 50 | 174 | 6.1 | 7.8 | 0.00 | 0.00 | 0.00 | 88 | 1018.7 |
| 20260508092248 | 50 | 174 | 5.2 | 8.7 | 0.00 | 0.00 | 0.00 | 88 | 1018.7 |
| 20260508091748 | 50 | 178 | 5.2 | 8.7 | 0.00 | 0.00 | 0.00 | 88 | 1018.7 |
| 20260508091248 | 50 | 205 | 5.2 | 7.8 | 0.00 | 0.00 | 0.00 | 89 | 1018.7 |
| 20260508090748 | 50 | 174 | 6.1 | 8.7 | 0.00 | 0.00 | 0.00 | 89 | 1018.7 |
| 20260508090248 | 50 | 169 | 6.1 | 8.7 | 0.00 | 0.00 | 0.00 | 89 | 1018.8 |
| 20260508085748 | 50 | 151 | 6.1 | 7.8 | 0.00 | 0.00 | 0.00 | 89 | 1018.7 |
| 20260508085249 | 50 | 168 | 6.1 | 8.7 | 0.00 | 0.00 | 0.00 | 89 | 1018.7 |
| 20260508084749 | 50 | 150 | 7.0 | 8.7 | 0.00 | 0.00 | 0.00 | 89 | 1018.7 |
| 20260508084248 | 50 | 205 | 6.1 | 8.7 | 0.00 | 0.00 | 0.00 | 89 | 1018.7 |
| 20260508083749 | 50 | 176 | 6.1 | 8.7 | 0.00 | 0.00 | 0.00 | 89 | 1018.7 |
| 20260508083248 | 50 | 169 | 6.1 | 8.7 | 0.00 | 0.00 | 0.00 | 89 | 1018.7 |
| 20260508082748 | 50 | 188 | 6.1 | 8.7 | 0.00 | 0.00 | 0.00 | 89 | 1018.7 |
| 20260508082248 | 50 | 178 | 6.1 | 8.7 | 0.00 | 0.00 | 0.00 | 89 | 1018.7 |
| 20260508081748 | 50 | 188 | 7.0 | 9.6 | 0.00 | 0.00 | 0.00 | 89 | 1018.7 |
| 20260508081247 | 50 | 147 | 7.0 | 9.6 | 0.00 | 0.00 | 0.00 | 89 | 1018.7 |
| 20260508080748 | 49 | 148 | 7.8 | 11.3 | 0.00 | 0.00 | 0.00 | 89 | 1018.6 |
| 20260508080248 | 49 | 174 | 7.8 | 11.3 | 0.00 | 0.00 | 0.00 | 89 | 1018.6 |
| 20260508075748 | 49 | 191 | 7.8 | 10.4 | 0.00 | 0.00 | 0.00 | 89 | 1018.6 |
| 20260508075248 | 49 | 154 | 7.8 | 10.4 | 0.00 | 0.00 | 0.00 | 89 | 1018.6 |
| 20260508074748 | 49 | 177 | 7.8 | 10.4 | 0.00 | 0.00 | 0.00 | 89 | 1018.5 |
| 20260508074249 | 49 | 167 | 7.8 | 10.4 | 0.00 | 0.00 | 0.00 | 89 | 1018.4 |
| 20260508073748 | 49 | 172 | 7.8 | 10.4 | 0.00 | 0.00 | 0.00 | 89 | 1018.4 |
| 20260508073246 | 49 | 179 | 7.8 | 10.4 | 0.00 | 0.00 | 0.00 | 89 | 1018.4 |
| 20260508072746 | 49 | 190 | 7.8 | 10.4 | 0.00 | 0.00 | 0.00 | 88 | 1018.5 |
| 20260508072245 | 49 | 197 | 7.8 | 12.2 | 0.00 | 0.00 | 0.00 | 88 | 1018.4 |
| 20260508071745 | 49 | 178 | 8.7 | 12.2 | 0.00 | 0.00 | 0.00 | 88 | 1018.3 |
| 20260508071244 | 49 | 176 | 7.8 | 11.3 | 0.00 | 0.00 | 0.00 | 88 | 1018.3 |
| 20260508070744 | 49 | 185 | 7.8 | 10.4 | 0.00 | 0.00 | 0.00 | 89 | 1018.2 |
| 20260508070243 | 49 | 183 | 7.8 | 12.2 | 0.00 | 0.00 | 0.00 | 89 | 1018.0 |
| 20260508065742 | 49 | 186 | 7.8 | 12.2 | 0.00 | 0.00 | 0.00 | 89 | 1018.0 |
| 20260508065242 | 49 | 174 | 8.7 | 11.3 | 0.00 | 0.00 | 0.00 | 88 | 1017.9 |
| 20260508064742 | 49 | 166 | 7.8 | 10.4 | 0.00 | 0.00 | 0.00 | 89 | 1018.0 |
| 20260508064240 | 49 | 178 | 7.8 | 10.4 | 0.00 | 0.00 | 0.00 | 89 | 1017.9 |
| 20260508063739 | 49 | 167 | 8.7 | 11.3 | 0.00 | 0.00 | 0.00 | 88 | 1017.8 |
| 20260508063240 | 49 | 174 | 8.7 | 11.3 | 0.00 | 0.00 | 0.00 | 88 | 1017.9 |
| 20260508062740 | 49 | 176 | 7.8 | 11.3 | 0.00 | 0.00 | 0.00 | 88 | 1017.8 |
| 20260508062240 | 49 | 173 | 7.8 | 11.3 | 0.00 | 0.00 | 0.00 | 88 | 1017.8 |
| 20260508061740 | 49 | 176 | 7.8 | 10.4 | 0.00 | 0.00 | 0.00 | 88 | 1017.9 |
| 20260508061240 | 49 | 198 | 7.8 | 11.3 | 0.00 | 0.00 | 0.00 | 89 | 1017.8 |
| 20260508060740 | 49 | 167 | 7.8 | 11.3 | 0.00 | 0.00 | 0.00 | 88 | 1017.8 |
| 20260508060238 | 49 | 176 | 7.8 | 9.6 | 0.00 | 0.00 | 0.00 | 89 | 1017.8 |
| 20260508055738 | 49 | 178 | 7.8 | 11.3 | 0.00 | 0.00 | 0.00 | 88 | 1017.8 |
| 20260508055238 | 49 | 186 | 7.8 | 11.3 | 0.00 | 0.00 | 0.00 | 88 | 1017.8 |
| 20260508054738 | 49 | 184 | 7.8 | 10.4 | 0.00 | 0.00 | 0.00 | 88 | 1017.8 |
| 20260508054238 | 49 | 175 | 7.8 | 10.4 | 0.00 | 0.00 | 0.00 | 88 | 1017.7 |
| 20260508053738 | 49 | 172 | 7.8 | 12.2 | 0.00 | 0.00 | 0.00 | 89 | 1017.7 |
| 20260508053238 | 49 | 186 | 8.7 | 12.2 | 0.00 | 0.00 | 0.00 | 88 | 1017.7 |
| 20260508052737 | 49 | 170 | 8.7 | 11.3 | 0.00 | 0.00 | 0.00 | 88 | 1017.4 |
| 20260508052237 | 49 | 195 | 8.7 | 11.3 | 0.00 | 0.00 | 0.00 | 88 | 1017.5 |
| 20260508051738 | 49 | 176 | 7.8 | 11.3 | 0.00 | 0.00 | 0.00 | 88 | 1017.5 |
| 20260508051236 | 49 | 162 | 7.0 | 10.4 | 0.00 | 0.00 | 0.00 | 88 | 1017.4 |
| 20260508050736 | 49 | 184 | 7.8 | 10.4 | 0.00 | 0.00 | 0.00 | 88 | 1017.5 |
| 20260508050236 | 49 | 172 | 7.0 | 10.4 | 0.00 | 0.00 | 0.00 | 88 | 1017.4 |
| 20260508045736 | 49 | 158 | 7.0 | 10.4 | 0.00 | 0.00 | 0.00 | 88 | 1017.4 |
| 20260508045233 | 49 | 183 | 7.8 | 10.4 | 0.00 | 0.00 | 0.00 | 87 | 1017.5 |
| 20260508044734 | 49 | 193 | 7.8 | 10.4 | 0.00 | 0.00 | 0.00 | 87 | 1017.4 |
| 20260508044233 | 49 | 157 | 7.8 | 10.4 | 0.00 | 0.00 | 0.00 | 87 | 1017.4 |
| 20260508043733 | 49 | 176 | 7.0 | 10.4 | 0.00 | 0.00 | 0.00 | 87 | 1017.4 |
| 20260508043234 | 49 | 178 | 7.0 | 10.4 | 0.00 | 0.00 | 0.00 | 87 | 1017.4 |
| 20260508042733 | 49 | 178 | 7.0 | 10.4 | 0.00 | 0.00 | 0.00 | 87 | 1017.3 |
| 20260508042233 | 49 | 185 | 7.8 | 9.6 | 0.00 | 0.00 | 0.00 | 87 | 1017.4 |
| 20260508041733 | 49 | 179 | 7.8 | 10.4 | 0.00 | 0.00 | 0.00 | 86 | 1017.4 |
| 20260508041233 | 49 | 173 | 7.8 | 11.3 | 0.00 | 0.00 | 0.00 | 86 | 1017.4 |
| 20260508040734 | 49 | 169 | 7.8 | 11.3 | 0.00 | 0.00 | 0.00 | 87 | 1017.3 |
| 20260508040234 | 49 | 155 | 7.8 | 11.3 | 0.00 | 0.00 | 0.00 | 87 | 1017.3 |
| 20260508035734 | 49 | 171 | 7.8 | 10.4 | 0.00 | 0.00 | 0.00 | 87 | 1017.3 |
| 20260508035234 | 49 | 173 | 7.8 | 10.4 | 0.00 | 0.00 | 0.00 | 87 | 1017.3 |
| 20260508034734 | 49 | 184 | 7.8 | 10.4 | 0.00 | 0.00 | 0.00 | 86 | 1017.3 |
| 20260508034234 | 49 | 179 | 7.8 | 10.4 | 0.00 | 0.00 | 0.00 | 86 | 1017.3 |
| 20260508033734 | 49 | 168 | 7.8 | 11.3 | 0.00 | 0.00 | 0.00 | 86 | 1017.3 |
| 20260508033233 | 49 | 199 | 7.8 | 11.3 | 0.00 | 0.00 | 0.00 | 86 | 1017.3 |
| 20260508032733 | 49 | 199 | 7.8 | 10.4 | 0.00 | 0.00 | 0.00 | 86 | 1017.2 |
| 20260508032234 | 49 | 195 | 7.0 | 10.4 | 0.00 | 0.00 | 0.00 | 86 | 1017.3 |
| 20260508031734 | 49 | 204 | 7.0 | 10.4 | 0.00 | 0.00 | 0.00 | 86 | 1017.4 |
| 20260508031236 | 49 | 226 | 7.8 | 10.4 | 0.00 | 0.00 | 0.00 | 86 | 1017.3 |
| 20260508030736 | 49 | 179 | 7.0 | 10.4 | 0.00 | 0.00 | 0.00 | 86 | 1017.2 |
| 20260508030234 | 49 | 189 | 7.0 | 10.4 | 0.00 | 0.00 | 0.00 | 86 | 1017.4 |
| 20260508025733 | 49 | 204 | 7.8 | 11.3 | 0.00 | 0.00 | 0.00 | 87 | 1017.3 |
| 20260508025233 | 49 | 200 | 8.7 | 12.2 | 0.00 | 0.00 | 0.00 | 87 | 1017.2 |
| 20260508024733 | 49 | 179 | 8.7 | 12.2 | 0.00 | 0.00 | 0.00 | 86 | 1017.2 |
| 20260508024234 | 49 | 165 | 8.7 | 13.0 | 0.00 | 0.00 | 0.00 | 86 | 1017.1 |
| 20260508023734 | 49 | 194 | 9.6 | 13.0 | 0.00 | 0.00 | 0.00 | 86 | 1017.1 |
| 20260508023234 | 49 | 148 | 9.6 | 13.9 | 0.00 | 0.00 | 0.00 | 86 | 1017.1 |
| 20260508022734 | 49 | 166 | 9.6 | 13.9 | 0.00 | 0.00 | 0.00 | 86 | 1017.1 |
| 20260508022234 | 49 | 170 | 9.6 | 13.0 | 0.00 | 0.00 | 0.00 | 86 | 1017.1 |
| 20260508021734 | 49 | 143 | 9.6 | 13.0 | 0.00 | 0.00 | 0.00 | 86 | 1017.2 |
| 20260508021233 | 49 | 150 | 10.4 | 13.9 | 0.00 | 0.00 | 0.00 | 86 | 1017.2 |
| 20260508020734 | 49 | 172 | 10.4 | 13.9 | 0.00 | 0.00 | 0.00 | 86 | 1017.1 |
| 20260508020233 | 49 | 176 | 10.4 | 13.9 | 0.00 | 0.00 | 0.00 | 86 | 1017.0 |
| 20260508015733 | 49 | 166 | 9.6 | 13.0 | 0.00 | 0.00 | 0.00 | 86 | 1017.1 |
| 20260508015233 | 49 | 184 | 9.6 | 13.9 | 0.00 | 0.00 | 0.00 | 86 | 1017.0 |
| 20260508014732 | 49 | 177 | 10.4 | 13.9 | 0.00 | 0.00 | 0.00 | 86 | 1017.1 |
| 20260508014232 | 49 | 181 | 11.3 | 13.9 | 0.00 | 0.00 | 0.00 | 85 | 1017.0 |
| 20260508013729 | 49 | 163 | 10.4 | 13.9 | 0.00 | 0.00 | 0.00 | 86 | 1017.1 |
| 20260508013229 | 49 | 175 | 10.4 | 13.9 | 0.00 | 0.00 | 0.00 | 85 | 1017.1 |
| 20260508012729 | 49 | 176 | 9.6 | 13.0 | 0.00 | 0.00 | 0.00 | 85 | 1017.2 |
| 20260508012229 | 49 | 178 | 9.6 | 13.9 | 0.00 | 0.00 | 0.00 | 85 | 1017.2 |
| 20260508011730 | 49 | 172 | 9.6 | 13.9 | 0.00 | 0.00 | 0.00 | 86 | 1017.1 |
| 20260508011229 | 49 | 180 | 8.7 | 12.2 | 0.00 | 0.00 | 0.00 | 85 | 1017.2 |
| 20260508010731 | 49 | 188 | 8.7 | 13.0 | 0.00 | 0.00 | 0.00 | 85 | 1017.2 |
| 20260508010229 | 50 | 181 | 9.6 | 13.9 | 0.00 | 0.00 | 0.00 | 86 | 1017.3 |
| 20260508005729 | 50 | 186 | 9.6 | 14.8 | 0.00 | 0.00 | 0.00 | 85 | 1017.4 |
| 20260508005229 | 50 | 171 | 10.4 | 15.6 | 0.00 | 0.00 | 0.00 | 85 | 1017.3 |
| 20260508004729 | 50 | 162 | 10.4 | 15.6 | 0.00 | 0.00 | 0.00 | 85 | 1017.2 |
| 20260508004230 | 50 | 184 | 9.6 | 13.0 | 0.00 | 0.00 | 0.00 | 85 | 1017.3 |
| 20260508003732 | 50 | 183 | 9.6 | 13.0 | 0.00 | 0.00 | 0.00 | 85 | 1017.3 |
| 20260508003227 | 50 | 171 | 10.4 | 14.8 | 0.00 | 0.00 | 0.00 | 85 | 1017.3 |
| 20260508002722 | 50 | 186 | 10.4 | 14.8 | 0.00 | 0.00 | 0.00 | 86 | 1017.4 |
| 20260508002223 | 50 | 174 | 10.4 | 14.8 | 0.00 | 0.00 | 0.00 | 85 | 1017.3 |
| 20260508001723 | 50 | 193 | 10.4 | 14.8 | 0.00 | 0.00 | 0.00 | 85 | 1017.3 |
| 20260508001223 | 50 | 152 | 11.3 | 14.8 | 0.00 | 0.00 | 0.00 | 85 | 1017.2 |
| 20260508000723 | 50 | 173 | 10.4 | 13.9 | 0.00 | 0.00 | 0.00 | 85 | 1017.3 |
| 20260508000223 | 50 | 183 | 9.6 | 13.0 | 0.00 | 0.00 | 0.00 | 85 | 1017.2 |
| 20260507235723 | 50 | 148 | 9.6 | 13.0 | 0.00 | 0.00 | 0.00 | 86 | 1017.3 |
| 20260507235223 | 50 | 153 | 9.6 | 13.0 | 0.00 | 0.00 | 0.00 | 86 | 1017.3 |
| 20260507234723 | 50 | 181 | 9.6 | 13.0 | 0.00 | 0.00 | 0.00 | 86 | 1017.4 |
| 20260507234223 | 50 | 161 | 10.4 | 13.0 | 0.00 | 0.00 | 0.00 | 86 | 1017.4 |
| 20260507233723 | 50 | 179 | 10.4 | 13.0 | 0.00 | 0.00 | 0.00 | 86 | 1017.4 |
| 20260507233223 | 50 | 162 | 9.6 | 13.0 | 0.00 | 0.00 | 0.00 | 86 | 1017.3 |
| 20260507232723 | 50 | 164 | 9.6 | 12.2 | 0.00 | 0.00 | 0.00 | 86 | 1017.3 |
| 20260507232223 | 50 | 167 | 9.6 | 12.2 | 0.00 | 0.00 | 0.00 | 87 | 1017.3 |
| 20260507231723 | 50 | 156 | 8.7 | 12.2 | 0.00 | 0.00 | 0.00 | 88 | 1017.4 |
| 20260507231217 | 50 | 162 | 7.8 | 12.2 | 0.00 | 0.00 | 0.00 | 89 | 1017.4 |
| 20260507230717 | 50 | 129 | 8.7 | 13.0 | 0.00 | 0.00 | 0.00 | 89 | 1017.4 |
| 20260507230216 | 50 | 153 | 9.6 | 13.0 | 0.00 | 0.00 | 0.00 | 89 | 1017.3 |
| 20260507225717 | 50 | 155 | 10.4 | 13.9 | 0.00 | 0.00 | 0.00 | 88 | 1017.3 |
| 20260507225216 | 50 | 160 | 10.4 | 13.9 | 0.00 | 0.00 | 0.00 | 88 | 1017.3 |
| 20260507224716 | 50 | 141 | 9.6 | 13.9 | 0.00 | 0.00 | 0.00 | 88 | 1017.3 |
| 20260507224216 | 50 | 134 | 9.6 | 13.9 | 0.00 | 0.00 | 0.00 | 88 | 1017.2 |
| 20260507223716 | 50 | 150 | 9.6 | 13.9 | 0.00 | 0.00 | 0.00 | 87 | 1017.2 |
| 20260507223217 | 50 | 78 | 9.6 | 13.9 | 0.00 | 0.00 | 0.00 | 87 | 1017.3 |
| 20260507222716 | 50 | 148 | 9.6 | 13.9 | 0.00 | 0.00 | 0.00 | 87 | 1017.3 |
| 20260507222216 | 50 | 152 | 9.6 | 13.9 | 0.00 | 0.00 | 0.00 | 87 | 1017.3 |
| 20260507221717 | 50 | 134 | 9.6 | 13.9 | 0.00 | 0.00 | 0.00 | 86 | 1017.4 |
| 20260507221216 | 50 | 146 | 8.7 | 13.0 | 0.00 | 0.00 | 0.00 | 86 | 1017.3 |
| 20260507220716 | 50 | 201 | 8.7 | 13.0 | 0.00 | 0.00 | 0.00 | 86 | 1017.4 |
| 20260507220209 | 50 | 103 | 9.6 | 13.0 | 0.00 | 0.00 | 0.00 | 86 | 1017.4 |
| 20260507215710 | 49 | 153 | 8.7 | 13.9 | 0.00 | 0.00 | 0.00 | 86 | 1017.4 |
| 20260507215210 | 49 | 157 | 8.7 | 13.9 | 0.00 | 0.00 | 0.00 | 86 | 1017.4 |
| 20260507214710 | 49 | 150 | 8.7 | 12.2 | 0.00 | 0.00 | 0.00 | 86 | 1017.4 |
| 20260507214210 | 49 | 150 | 8.7 | 12.2 | 0.00 | 0.00 | 0.00 | 86 | 1017.4 |
| 20260507213709 | 49 | 155 | 8.7 | 13.0 | 0.00 | 0.00 | 0.00 | 86 | 1017.4 |
| 20260507213211 | 49 | 142 | 9.6 | 13.9 | 0.00 | 0.00 | 0.00 | 86 | 1017.4 |
| 20260507212710 | 49 | 150 | 10.4 | 13.9 | 0.00 | 0.00 | 0.00 | 86 | 1017.4 |
| 20260507212210 | 49 | 151 | 9.6 | 13.9 | 0.00 | 0.00 | 0.00 | 86 | 1017.4 |
| 20260507211710 | 49 | 146 | 10.4 | 14.8 | 0.00 | 0.00 | 0.00 | 86 | 1017.3 |
| 20260507211210 | 49 | 147 | 9.6 | 14.8 | 0.00 | 0.00 | 0.00 | 85 | 1017.3 |
| 20260507210710 | 49 | 139 | 8.7 | 13.0 | 0.00 | 0.00 | 0.00 | 86 | 1017.3 |
| 20260507210210 | 50 | 153 | 7.8 | 13.9 | 0.00 | 0.00 | 0.00 | 86 | 1017.2 |
| 20260507205711 | 49 | 145 | 7.8 | 13.9 | 0.00 | 0.00 | 0.00 | 85 | 1017.3 |
| 20260507205209 | 49 | 167 | 7.0 | 11.3 | 0.00 | 0.00 | 0.00 | 86 | 1017.3 |
| 20260507204704 | 50 | 179 | 7.8 | 12.2 | 0.00 | 0.00 | 0.00 | 86 | 1017.3 |
| 20260507204202 | 50 | 155 | 7.8 | 13.0 | 0.00 | 0.00 | 0.00 | 85 | 1017.3 |
| 20260507203701 | 50 | 71 | 7.8 | 13.0 | 0.00 | 0.00 | 0.00 | 85 | 1017.3 |
| 20260507203207 | 50 | 139 | 8.7 | 13.0 | 0.00 | 0.00 | 0.00 | 85 | 1017.3 |
| 20260507202701 | 50 | 122 | 8.7 | 13.0 | 0.00 | 0.00 | 0.00 | 84 | 1017.2 |
| 20260507202202 | 50 | 125 | 9.6 | 12.2 | 0.00 | 0.00 | 0.00 | 84 | 1017.1 |
| 20260507201703 | 50 | 169 | 9.6 | 12.2 | 0.00 | 0.00 | 0.00 | 85 | 1017.2 |
| 20260507201201 | 50 | 143 | 9.6 | 13.0 | 0.00 | 0.00 | 0.00 | 85 | 1017.2 |
| 20260507200702 | 50 | 165 | 10.4 | 13.9 | 0.00 | 0.00 | 0.00 | 84 | 1017.2 |
| 20260507200202 | 50 | 146 | 10.4 | 14.8 | 0.00 | 0.00 | 0.00 | 84 | 1017.1 |
| 20260507195701 | 50 | 163 | 10.4 | 14.8 | 0.00 | 0.00 | 0.00 | 85 | 1017.1 |
| 20260507195202 | 50 | 139 | 10.4 | 15.6 | 0.00 | 0.00 | 0.00 | 85 | 1017.0 |
| 20260507194702 | 49 | 157 | 10.4 | 15.6 | 0.00 | 0.00 | 0.00 | 84 | 1017.0 |
| 20260507194201 | 49 | 167 | 10.4 | 13.9 | 0.00 | 0.00 | 0.00 | 85 | 1017.0 |
| 20260507193701 | 49 | 150 | 11.3 | 16.5 | 0.00 | 0.00 | 0.00 | 85 | 1017.0 |
| 20260507193155 | 49 | 155 | 10.4 | 16.5 | 0.00 | 0.00 | 0.00 | 84 | 1016.8 |
| 20260507192652 | 50 | 153 | 9.6 | 14.8 | 0.00 | 0.00 | 0.00 | 84 | 1016.8 |
| 20260507192152 | 50 | 84 | 8.7 | 14.8 | 0.00 | 0.00 | 0.00 | 85 | 1016.6 |
| 20260507191651 | 50 | 115 | 9.6 | 14.8 | 0.00 | 0.00 | 0.00 | 84 | 1016.5 |
| 20260507191152 | 50 | 75 | 8.7 | 14.8 | 0.00 | 0.00 | 0.00 | 84 | 1016.6 |
| 20260507190651 | 50 | 162 | 7.0 | 13.9 | 0.00 | 0.00 | 0.00 | 84 | 1016.6 |
| 20260507190152 | 49 | 157 | 7.8 | 13.9 | 0.00 | 0.00 | 0.00 | 84 | 1016.6 |
| 20260507185652 | 49 | 318 | 9.6 | 14.8 | 0.00 | 0.00 | 0.00 | 84 | 1016.5 |
| 20260507185152 | 49 | 175 | 10.4 | 17.4 | 0.00 | 0.00 | 0.00 | 84 | 1016.5 |
| 20260507184652 | 49 | 126 | 10.4 | 17.4 | 0.00 | 0.00 | 0.00 | 83 | 1016.4 |
| 20260507184151 | 49 | 146 | 8.7 | 15.6 | 0.00 | 0.00 | 0.00 | 83 | 1016.4 |
| 20260507183652 | 50 | 180 | 7.8 | 14.8 | 0.00 | 0.00 | 0.00 | 83 | 1016.4 |
| 20260507183151 | 49 | 146 | 7.8 | 13.9 | 0.00 | 0.00 | 0.00 | 83 | 1016.4 |
| 20260507182651 | 50 | 140 | 8.7 | 14.8 | 0.00 | 0.00 | 0.00 | 83 | 1016.4 |
| 20260507182152 | 50 | 117 | 9.6 | 14.8 | 0.00 | 0.00 | 0.00 | 83 | 1016.4 |
| 20260507181646 | 50 | 152 | 7.8 | 14.8 | 0.00 | 0.00 | 0.00 | 82 | 1016.5 |
| 20260507181146 | 50 | 96 | 7.8 | 13.9 | 0.00 | 0.00 | 0.00 | 83 | 1016.5 |
| 20260507180646 | 50 | 113 | 7.8 | 13.9 | 0.00 | 0.00 | 0.00 | 81 | 1016.4 |
| 20260507180146 | 50 | 131 | 7.0 | 14.8 | 0.00 | 0.00 | 0.00 | 81 | 1016.6 |
| 20260507175645 | 50 | 22 | 8.7 | 14.8 | 0.00 | 0.00 | 0.00 | 81 | 1016.5 |
| 20260507175146 | 50 | 116 | 8.7 | 13.9 | 0.00 | 0.00 | 0.00 | 81 | 1016.6 |
| 20260507174646 | 50 | 150 | 7.8 | 14.8 | 0.00 | 0.00 | 0.00 | 81 | 1016.4 |
| 20260507174145 | 50 | 301 | 7.8 | 14.8 | 0.00 | 0.00 | 0.00 | 81 | 1016.5 |
| 20260507173646 | 50 | 174 | 7.8 | 14.8 | 0.00 | 0.00 | 0.00 | 81 | 1016.6 |
| 20260507173146 | 50 | 63 | 7.8 | 13.0 | 0.00 | 0.00 | 0.00 | 81 | 1016.7 |
| 20260507172645 | 50 | 141 | 6.1 | 13.0 | 0.00 | 0.00 | 0.00 | 81 | 1016.7 |
| 20260507172146 | 50 | 108 | 7.0 | 14.8 | 0.00 | 0.00 | 0.00 | 81 | 1016.7 |
| 20260507171645 | 50 | 44 | 6.1 | 14.8 | 0.00 | 0.00 | 0.00 | 81 | 1016.6 |
| 20260507171146 | 50 | 196 | 5.2 | 12.2 | 0.00 | 0.00 | 0.00 | 81 | 1016.6 |
| 20260507170646 | 50 | 113 | 6.1 | 12.2 | 0.00 | 0.00 | 0.00 | 80 | 1016.5 |
| 20260507170147 | 50 | 15 | 6.1 | 13.0 | 0.00 | 0.00 | 0.00 | 81 | 1016.4 |
| 20260507165646 | 50 | 138 | 7.0 | 13.9 | 0.00 | 0.00 | 0.00 | 80 | 1016.5 |
| 20260507165145 | 50 | 157 | 7.0 | 13.9 | 0.00 | 0.00 | 0.00 | 81 | 1016.6 |
| 20260507164644 | 50 | 236 | 7.0 | 16.5 | 0.00 | 0.00 | 0.00 | 81 | 1016.5 |
| 20260507164144 | 50 | 50 | 7.8 | 16.5 | 0.00 | 0.00 | 0.00 | 81 | 1016.5 |
| 20260507163644 | 50 | 84 | 7.0 | 13.9 | 0.00 | 0.00 | 0.00 | 80 | 1016.6 |
| 20260507163143 | 50 | 193 | 7.0 | 15.6 | 0.00 | 0.00 | 0.00 | 80 | 1016.5 |
| 20260507162643 | 50 | 107 | 7.8 | 15.6 | 0.00 | 0.00 | 0.00 | 80 | 1016.4 |
| 20260507162143 | 50 | 52 | 7.8 | 14.8 | 0.00 | 0.00 | 0.00 | 80 | 1016.5 |
| 20260507161643 | 50 | 108 | 7.0 | 13.9 | 0.00 | 0.00 | 0.00 | 80 | 1016.5 |
| 20260507161142 | 50 | 148 | 7.0 | 13.9 | 0.00 | 0.00 | 0.00 | 80 | 1016.6 |
| 20260507160636 | 50 | 301 | 6.1 | 13.0 | 0.00 | 0.00 | 0.00 | 81 | 1016.7 |
| 20260507160129 | 50 | 37 | 7.0 | 13.9 | 0.00 | 0.00 | 0.00 | 80 | 1016.6 |
| 20260507155623 | 50 | 63 | 7.0 | 14.8 | 0.00 | 0.00 | 0.00 | 80 | 1016.7 |
| 20260507155123 | 50 | 131 | 7.0 | 14.8 | 0.00 | 0.00 | 0.00 | 80 | 1016.6 |
| 20260507154623 | 50 | 133 | 7.0 | 14.8 | 0.00 | 0.00 | 0.00 | 79 | 1016.7 |
| 20260507154124 | 50 | 138 | 7.0 | 14.8 | 0.00 | 0.00 | 0.00 | 80 | 1016.7 |
| 20260507153624 | 50 | 105 | 7.0 | 13.9 | 0.00 | 0.00 | 0.00 | 80 | 1016.8 |
| 20260507153123 | 50 | 96 | 7.8 | 13.9 | 0.00 | 0.00 | 0.00 | 80 | 1016.8 |
| 20260507152623 | 50 | 72 | 7.0 | 13.9 | 0.00 | 0.00 | 0.00 | 80 | 1016.8 |
| 20260507152123 | 50 | 97 | 6.1 | 13.9 | 0.00 | 0.00 | 0.00 | 80 | 1016.9 |
| 20260507151623 | 50 | 89 | 7.0 | 13.9 | 0.00 | 0.00 | 0.00 | 80 | 1016.8 |
| 20260507151123 | 50 | 43 | 6.1 | 13.9 | 0.00 | 0.00 | 0.00 | 80 | 1016.8 |
| 20260507150623 | 50 | 72 | 6.1 | 13.0 | 0.00 | 0.00 | 0.00 | 80 | 1016.9 |
| 20260507150122 | 50 | 143 | 7.0 | 13.0 | 0.00 | 0.00 | 0.00 | 80 | 1016.9 |
| 20260507145622 | 50 | 336 | 7.0 | 14.8 | 0.00 | 0.00 | 0.00 | 80 | 1016.9 |
| 20260507145116 | 50 | 323 | 7.8 | 14.8 | 0.00 | 0.00 | 0.00 | 80 | 1017.0 |
| 20260507144615 | 50 | 117 | 7.0 | 12.2 | 0.00 | 0.00 | 0.00 | 78 | 1017.0 |
| 20260507144115 | 50 | 94 | 7.0 | 13.9 | 0.00 | 0.00 | 0.00 | 79 | 1017.0 |
| 20260507143615 | 50 | 145 | 7.0 | 15.6 | 0.00 | 0.00 | 0.00 | 79 | 1017.1 |
| 20260507143115 | 50 | 80 | 7.0 | 15.6 | 0.00 | 0.00 | 0.00 | 80 | 1017.0 |
| 20260507142615 | 50 | 17 | 6.1 | 13.0 | 0.00 | 0.00 | 0.00 | 80 | 1017.0 |
| 20260507142115 | 51 | 207 | 6.1 | 13.0 | 0.00 | 0.00 | 0.00 | 79 | 1017.0 |
| 20260507141615 | 51 | 131 | 6.1 | 13.0 | 0.00 | 0.00 | 0.00 | 79 | 1017.1 |
| 20260507141115 | 51 | 11 | 7.0 | 15.6 | 0.00 | 0.00 | 0.00 | 78 | 1017.1 |
| 20260507140615 | 50 | 122 | 7.8 | 15.6 | 0.00 | 0.00 | 0.00 | 79 | 1017.1 |
| 20260507140115 | 50 | 113 | 7.0 | 13.9 | 0.00 | 0.00 | 0.00 | 81 | 1017.1 |
| 20260507135614 | 50 | 59 | 7.8 | 15.6 | 0.00 | 0.00 | 0.00 | 80 | 1017.1 |
| 20260507135115 | 50 | 171 | 7.8 | 15.6 | 0.00 | 0.00 | 0.00 | 81 | 1017.1 |
| 20260507134616 | 50 | 117 | 7.0 | 12.2 | 0.00 | 0.00 | 0.00 | 80 | 1017.0 |
| 20260507134114 | 50 | 85 | 7.0 | 12.2 | 0.00 | 0.00 | 0.00 | 80 | 1017.1 |
| 20260507133611 | 50 | 79 | 7.0 | 13.0 | 0.00 | 0.00 | 0.00 | 80 | 1017.1 |
| 20260507133110 | 50 | 156 | 7.0 | 13.0 | 0.00 | 0.00 | 0.00 | 79 | 1017.1 |
| 20260507132612 | 50 | 328 | 7.8 | 13.0 | 0.00 | 0.00 | 0.00 | 80 | 1017.2 |
| 20260507132112 | 50 | 33 | 7.8 | 13.9 | 0.00 | 0.00 | 0.00 | 80 | 1017.1 |
| 20260507131611 | 50 | 165 | 8.7 | 14.8 | 0.00 | 0.00 | 0.00 | 81 | 1017.2 |
| 20260507131122 | 50 | 159 | 8.7 | 15.6 | 0.00 | 0.00 | 0.00 | 80 | 1017.1 |
| 20260507130610 | 50 | 46 | 7.8 | 15.6 | 0.00 | 0.00 | 0.00 | 79 | 1017.2 |
| 20260507130113 | 50 | 110 | 7.0 | 13.0 | 0.00 | 0.00 | 0.00 | 79 | 1017.1 |
| 20260507125611 | 50 | 139 | 7.8 | 13.0 | 0.00 | 0.00 | 0.00 | 79 | 1017.2 |
| 20260507125112 | 50 | 120 | 7.8 | 13.0 | 0.00 | 0.00 | 0.00 | 79 | 1017.2 |
| 20260507124612 | 50 | 326 | 8.7 | 14.8 | 0.00 | 0.00 | 0.00 | 79 | 1017.2 |
| 20260507124122 | 50 | 96 | 8.7 | 14.8 | 0.00 | 0.00 | 0.00 | 79 | 1017.2 |
| 20260507123611 | 50 | 85 | 7.0 | 13.9 | 0.00 | 0.00 | 0.00 | 78 | 1017.3 |
| 20260507123111 | 50 | 354 | 7.0 | 17.4 | 0.00 | 0.00 | 0.00 | 79 | 1017.3 |
| 20260507122611 | 50 | 118 | 7.8 | 17.4 | 0.00 | 0.00 | 0.00 | 79 | 1017.4 |
| 20260507122109 | 50 | 153 | 7.8 | 13.0 | 0.00 | 0.00 | 0.00 | 80 | 1017.3 |
| 20260507121600 | 50 | 110 | 7.0 | 13.0 | 0.00 | 0.00 | 0.00 | 78 | 1017.4 |
| 20260507121101 | 50 | 89 | 5.2 | 11.3 | 0.00 | 0.00 | 0.00 | 77 | 1017.4 |
| 20260507120601 | 50 | 305 | 6.1 | 11.3 | 0.00 | 0.00 | 0.00 | 78 | 1017.4 |
| 20260507115601 | 50 | 77 | 7.0 | 13.0 | 0.00 | 0.00 | 0.00 | 78 | 1017.4 |
| 20260507115102 | 50 | 54 | 7.0 | 13.0 | 0.00 | 0.00 | 0.00 | 78 | 1017.4 |
| 20260507114600 | 50 | 69 | 6.1 | 13.0 | 0.00 | 0.00 | 0.00 | 77 | 1017.4 |
| 20260507114101 | 50 | 352 | 6.1 | 12.2 | 0.00 | 0.00 | 0.00 | 77 | 1017.5 |
| 20260507113601 | 49 | 21 | 6.1 | 13.0 | 0.00 | 0.00 | 0.00 | 78 | 1017.5 |
| 20260507113101 | 50 | 249 | 6.1 | 13.0 | 0.00 | 0.00 | 0.00 | 77 | 1017.6 |
| 20260507112600 | 50 | 163 | 6.1 | 13.0 | 0.00 | 0.00 | 0.00 | 78 | 1017.6 |
| 20260507112101 | 50 | 83 | 5.2 | 13.0 | 0.00 | 0.00 | 0.00 | 76 | 1017.6 |
| 20260507111600 | 50 | 41 | 5.2 | 10.4 | 0.00 | 0.00 | 0.00 | 77 | 1017.7 |
| 20260507111100 | 50 | 131 | 6.1 | 10.4 | 0.00 | 0.00 | 0.00 | 76 | 1017.7 |
| 20260507110555 | 50 | 43 | 5.2 | 12.2 | 0.00 | 0.00 | 0.00 | 76 | 1017.8 |
| 20260507110051 | 50 | 130 | 4.3 | 12.2 | 0.00 | 0.00 | 0.00 | 76 | 1017.9 |
| 20260507105550 | 50 | 81 | 4.3 | 9.6 | 0.00 | 0.00 | 0.00 | 76 | 1017.7 |
| 20260507105052 | 49 | 57 | 5.2 | 13.0 | 0.00 | 0.00 | 0.00 | 77 | 1017.8 |
| 20260507104551 | 49 | 127 | 6.1 | 13.0 | 0.00 | 0.00 | 0.00 | 76 | 1017.8 |
| 20260507104050 | 49 | 112 | 5.2 | 10.4 | 0.00 | 0.00 | 0.00 | 76 | 1017.7 |
| 20260507103551 | 49 | 40 | 5.2 | 11.3 | 0.00 | 0.00 | 0.00 | 77 | 1017.8 |
| 20260507103051 | 49 | 109 | 5.2 | 11.3 | 0.00 | 0.00 | 0.00 | 78 | 1017.8 |
| 20260507102550 | 49 | 173 | 5.2 | 11.3 | 0.00 | 0.00 | 0.00 | 76 | 1017.9 |
| 20260507102051 | 49 | 186 | 6.1 | 11.3 | 0.00 | 0.00 | 0.00 | 77 | 1017.9 |
| 20260507101550 | 49 | 57 | 5.2 | 11.3 | 0.00 | 0.00 | 0.00 | 77 | 1017.7 |
| 20260507101051 | 49 | 11 | 5.2 | 10.4 | 0.00 | 0.00 | 0.00 | 76 | 1017.7 |
| 20260507100550 | 49 | 122 | 5.2 | 12.2 | 0.00 | 0.00 | 0.00 | 76 | 1017.7 |
| 20260507100051 | 49 | 93 | 5.2 | 12.2 | 0.00 | 0.00 | 0.00 | 77 | 1017.7 |
| 20260507095550 | 49 | 101 | 5.2 | 9.6 | 0.00 | 0.00 | 0.00 | 76 | 1017.8 |